Location: Mentone
(34.5413°N, 85.5351°W)
Time: 07:54:19
(UTC-06:00)

Tiros 1 despin weight - Visible Passes

Search period start: 23 February 2017 00:00
Search period end: 05 March 2017 00:00
Orbit: 595 x 644 km, 48.2° (Epoch: 23 February)

Date Brightness Start Highest point End Pass type
(mag) Time Alt. Az. Time Alt. Az. Time Alt. Az.
23 Feb ? 18:35:09 10° NNW 18:38:36 20° NNE 18:40:35 16° NE visible
23 Feb ? 20:16:15 10° NW 20:17:41 19° NW 20:17:41 19° NW visible
24 Feb ? 18:52:03 10° NW 18:56:05 28° NNE 18:57:10 25° NE visible
24 Feb ? 20:33:20 10° WNW 20:34:16 16° WNW 20:34:16 16° WNW visible
25 Feb ? 19:08:55 10° NW 19:13:25 45° NNE 19:13:49 44° NE visible
25 Feb ? 20:50:46 10° WNW 20:50:56 11° WNW 20:50:56 11° WNW visible
26 Feb ? 19:25:53 10° NW 19:30:34 85° NNE 19:30:34 85° NNE visible
27 Feb ? 18:01:37 10° NW 18:05:53 34° NNE 18:10:09 10° E visible
27 Feb ? 19:43:06 10° WNW 19:47:28 47° SW 19:47:28 47° SW visible
28 Feb ? 18:18:31 10° NW 18:23:08 59° NE 18:27:21 12° ESE visible
28 Feb ? 20:00:48 10° W 20:04:27 23° SW 20:04:29 23° SW visible
01 Mar ? 18:35:35 10° WNW 18:40:13 71° SW 18:44:32 12° SE visible
02 Mar ? 18:52:57 10° WNW 18:57:09 34° SW 19:01:23 10° SSE visible
03 Mar ? 19:11:07 10° W 19:13:57 16° SW 19:16:48 10° SSW visible
